This demonstration page uses our WeatherBlox Daily Observations layout. Learn more.

Left ArrowRight Arrow

Hourly Observations for June 7, 2016

Temp ( °F °C ) Dew Point ( °F °C ) Humidity (%) Winds ( mph kmh ) Pressure ( in mb ) Visibility ( mi km ) Precip ( " mm )
12:53 am 00:53 Clear 79 26.1 62 16.7 56 56 Calm 29.72 1007 10 16 0.00 0.00
1:53 am 01:53 Clear 78 25.6 62 16.7 58 58 Calm 29.74 1007 10 16 0.00 0.00
2:53 am 02:53 Clear 77 25 60 15.6 56 56 SSE 3 6 29.75 1007 10 16 0.00 0.00
3:53 am 03:53 Clear 76 24.4 59 15 56 56 Calm 29.76 1008 10 16 0.00 0.00
4:53 am 04:53 Clear 74 23.3 59 15 60 60 S 3 6 29.77 1008 10 16 0.00 0.00
5:53 am 05:53 Sunny 74 23.3 58 14.4 57 57 SSW 5 7 29.78 1009 10 16 0.00 0.00
6:53 am 06:53 Sunny 73 22.8 59 15 62 62 SE 3 6 29.80 1009 10 16 0.00 0.00
7:53 am 07:53 Sunny 75 23.9 57 13.9 54 54 S 6 9 29.81 1010 10 16 0.00 0.00
8:53 am 08:53 Sunny 77 25 57 14 51 51 undefined N/A N/A 2 3 0.00 0.00
9:53 am 09:53 Sunny 81 27.2 58 14.4 45 45 S 5 7 29.81 1009 10 16 0.00 0.00
10:53 am 10:53 Sunny 84 28.9 58 14.4 41 41 VRB 5 7 29.80 1009 10 16 0.00 0.00
11:53 am 11:53 Sunny 88 31.1 58 14.4 36 36 SSW 5 7 29.79 1009 10 16 0.00 0.00
12:53 pm 12:53 Sunny 91 32.8 57 13.9 32 32 VRB 6 9 29.78 1009 10 16 0.00 0.00
1:53 pm 13:53 Sunny 93 33.9 57 13.9 30 30 SSE 8 13 29.77 1008 10 16 0.00 0.00
2:53 pm 14:53 Sunny 95 35 54 12.2 25 25 S 10 17 29.75 1008 10 16 0.00 0.00
3:53 pm 15:53 Sunny 95 35 54 12.2 25 25 S 8 13 29.74 1007 10 16 0.00 0.00
4:53 pm 16:53 Sunny 96 35.6 55 12.8 25 25 S 12 19 29.72 1007 10 16 0.00 0.00
5:53 pm 17:53 Sunny 94 34.4 55 12.8 27 27 S 10 17 29.72 1006 10 16 0.00 0.00
6:53 pm 18:53 Sunny 93 33.9 58 14.4 31 31 S 12 19 29.71 1006 10 16 0.00 0.00
7:53 pm 19:53 Sunny 90 32.2 59 15 35 35 S 9 15 29.72 1006 10 16 0.00 0.00
8:53 pm 20:53 Clear 86 30 63 17.2 46 46 S 9 15 29.73 1007 10 16 0.00 0.00
9:53 pm 21:53 Clear 83 28.3 64 17.8 53 53 SSE 5 7 29.75 1008 10 16 0.00 0.00
10:53 pm 22:53 Clear 81 27.2 65 18.3 58 58 W 3 6 29.77 1008 10 16 0.00 0.00
11:53 pm 23:53 Clear 82 27.8 63 17.2 53 53 SW 6 9 29.77 1008 10 16 0.00 0.00

Powered by AerisWeather